| time (UTC) | temp C | wind direction | speed KPH | gust KPH | rain 1hr cm | rain 24hr cm | rain mn cm | humidity % | barometer mb |
| 20260510130920 | 18 | 312 | 0.0 | 1.6 | 0.00 | 0.00 | 0.00 | 81 | 1006.4 |
| 20260510130331 | 17 | 346 | 1.6 | 1.6 | 0.00 | 0.00 | 0.00 | 81 | 1006.0 |
| 20260510125751 | 16 | 356 | 3.2 | 4.8 | 0.00 | 0.00 | 0.00 | 85 | 1006.0 |
| 20260510125144 | 16 | 329 | 0.0 | 1.6 | 0.00 | 0.00 | 0.00 | 88 | 1006.4 |
| 20260510123308 | 15 | 330 | 0.0 | 0.0 | 0.00 | 0.00 | 0.00 | 95 | 1006.0 |
| 20260510122729 | 14 | 271 | 0.0 | 0.0 | 0.00 | 0.00 | 0.00 | 96 | 1006.0 |
| 20260510122133 | 14 | 289 | 0.0 | 0.0 | 0.00 | 0.00 | 0.00 | 98 | 1006.0 |
| 20260510121511 | 13 | 276 | 0.0 | 0.0 | 0.00 | 0.00 | 0.00 | 99 | 1006.0 |
| 20260510120949 | 13 | 264 | 0.0 | 0.0 | 0.00 | 0.00 | 0.00 | 99 | 1006.0 |
| 20260510115743 | 12 | 294 | 0.0 | 0.0 | 0.00 | 0.00 | 0.00 | 99 | 1006.0 |
| 20260510114518 | 12 | 285 | 0.0 | 0.0 | 0.00 | 0.00 | 0.00 | 99 | 1006.0 |
| 20260510113914 | 12 | 279 | 0.0 | 0.0 | 0.00 | 0.00 | 0.00 | 99 | 1005.7 |
| 20260510112710 | 12 | 277 | 0.0 | 0.0 | 0.00 | 0.00 | 0.00 | 99 | 1005.4 |
| 20260510112131 | 11 | 285 | 0.0 | 0.0 | 0.00 | 0.00 | 0.00 | 99 | 1005.4 |
| 20260510111532 | 11 | 302 | 0.0 | 0.0 | 0.00 | 0.00 | 0.00 | 99 | 1005.0 |
| 20260510110933 | 11 | 275 | 0.0 | 0.0 | 0.00 | 0.00 | 0.00 | 99 | 1005.0 |
| 20260510110312 | 11 | 268 | 0.0 | 0.0 | 0.00 | 0.00 | 0.00 | 99 | 1005.0 |
| 20260510105747 | 11 | 276 | 0.0 | 0.0 | 0.00 | 0.00 | 0.00 | 99 | 1005.0 |
| 20260510105143 | 11 | 252 | 0.0 | 0.0 | 0.00 | 0.00 | 0.00 | 99 | 1004.7 |
| 20260510103935 | 11 | 212 | 1.6 | 1.6 | 0.00 | 0.00 | 0.00 | 99 | 1004.4 |
| 20260510103324 | 11 | 285 | 0.0 | 0.0 | 0.00 | 0.00 | 0.00 | 99 | 1004.7 |
| 20260510102717 | 11 | 272 | 0.0 | 0.0 | 0.00 | 0.00 | 0.00 | 99 | 1004.7 |
| 20260510102142 | 11 | 273 | 0.0 | 0.0 | 0.00 | 0.00 | 0.00 | 99 | 1004.7 |
| 20260510101510 | 11 | 308 | 0.0 | 0.0 | 0.00 | 0.00 | 0.00 | 99 | 1004.4 |
| 20260510100351 | 11 | 270 | 0.0 | 0.0 | 0.00 | 0.00 | 0.00 | 99 | 1004.4 |
| 20260510095710 | 11 | 254 | 0.0 | 0.0 | 0.00 | 0.00 | 0.00 | 99 | 1004.7 |
| 20260510095139 | 11 | 268 | 0.0 | 0.0 | 0.00 | 0.00 | 0.00 | 99 | 1004.4 |
| 20260510094539 | 11 | 275 | 0.0 | 0.0 | 0.00 | 0.00 | 0.00 | 98 | 1004.4 |
| 20260510093908 | 11 | 268 | 0.0 | 0.0 | 0.00 | 0.00 | 0.00 | 98 | 1004.4 |
| 20260510093327 | 11 | 268 | 0.0 | 0.0 | 0.00 | 0.00 | 0.00 | 98 | 1004.0 |
| 20260510092725 | 11 | 267 | 0.0 | 0.0 | 0.00 | 0.00 | 0.00 | 98 | 1004.4 |
| 20260510092129 | 11 | 277 | 0.0 | 0.0 | 0.00 | 0.00 | 0.00 | 98 | 1004.0 |
| 20260510091537 | 11 | 309 | 0.0 | 0.0 | 0.00 | 0.00 | 0.00 | 98 | 1004.0 |
| 20260510090909 | 11 | 262 | 0.0 | 0.0 | 0.00 | 0.00 | 0.00 | 98 | 1003.7 |
| 20260510090341 | 11 | 266 | 0.0 | 0.0 | 0.00 | 0.00 | 0.00 | 98 | 1004.0 |
| 20260510085716 | 11 | 270 | 0.0 | 0.0 | 0.00 | 0.00 | 0.00 | 98 | 1003.7 |
| 20260510083948 | 11 | 271 | 0.0 | 0.0 | 0.00 | 0.00 | 0.00 | 97 | 1003.7 |
| 20260510083352 | 11 | 275 | 0.0 | 0.0 | 0.00 | 0.00 | 0.00 | 97 | 1003.7 |
| 20260510082744 | 11 | 212 | 0.0 | 0.0 | 0.00 | 0.00 | 0.00 | 97 | 1003.7 |
| 20260510082119 | 11 | 259 | 0.0 | 0.0 | 0.00 | 0.00 | 0.00 | 97 | 1003.3 |
| 20260510081549 | 12 | 272 | 0.0 | 0.0 | 0.00 | 0.00 | 0.00 | 97 | 1003.3 |
| 20260510080918 | 12 | 295 | 0.0 | 0.0 | 0.00 | 0.00 | 0.00 | 96 | 1003.7 |
| 20260510080327 | 12 | 277 | 0.0 | 0.0 | 0.00 | 0.00 | 0.00 | 96 | 1003.3 |
| 20260510075750 | 12 | 274 | 0.0 | 0.0 | 0.00 | 0.00 | 0.00 | 96 | 1003.3 |
| 20260510074542 | 12 | 283 | 0.0 | 0.0 | 0.00 | 0.00 | 0.00 | 96 | 1003.0 |
| 20260510073942 | 12 | 274 | 0.0 | 0.0 | 0.00 | 0.00 | 0.00 | 96 | 1003.3 |
| 20260510073347 | 12 | 273 | 0.0 | 0.0 | 0.00 | 0.00 | 0.00 | 96 | 1003.0 |
| 20260510072734 | 12 | 277 | 0.0 | 0.0 | 0.00 | 0.00 | 0.00 | 96 | 1003.0 |
| 20260510072126 | 12 | 272 | 0.0 | 0.0 | 0.00 | 0.00 | 0.00 | 96 | 1003.3 |
| 20260510071546 | 12 | 263 | 0.0 | 0.0 | 0.00 | 0.00 | 0.00 | 96 | 1003.3 |
| 20260510070925 | 12 | 268 | 0.0 | 0.0 | 0.00 | 0.00 | 0.00 | 96 | 1003.3 |
| 20260510070312 | 12 | 277 | 1.6 | 1.6 | 0.00 | 0.00 | 0.00 | 96 | 1003.3 |
| 20260510065734 | 12 | 285 | 0.0 | 0.0 | 0.00 | 0.00 | 0.00 | 95 | 1003.3 |
| 20260510065141 | 12 | 283 | 0.0 | 0.0 | 0.00 | 0.00 | 0.00 | 95 | 1003.0 |
| 20260510063923 | 12 | 294 | 0.0 | 0.0 | 0.00 | 0.00 | 0.00 | 95 | 1003.3 |
| 20260510063330 | 13 | 288 | 0.0 | 0.0 | 0.00 | 0.00 | 0.00 | 94 | 1003.0 |
| 20260510062709 | 13 | 280 | 0.0 | 0.0 | 0.00 | 0.00 | 0.00 | 94 | 1003.3 |
| 20260510062146 | 13 | 314 | 0.0 | 0.0 | 0.00 | 0.00 | 0.00 | 94 | 1003.3 |
| 20260510061534 | 13 | 305 | 0.0 | 0.0 | 0.00 | 0.00 | 0.00 | 94 | 1003.3 |
| 20260510060949 | 13 | 275 | 0.0 | 1.6 | 0.00 | 0.00 | 0.00 | 94 | 1003.3 |
| 20260510060341 | 13 | 299 | 0.0 | 0.0 | 0.00 | 0.00 | 0.00 | 94 | 1003.3 |
| 20260510055725 | 13 | 280 | 0.0 | 0.0 | 0.00 | 0.00 | 0.00 | 94 | 1003.3 |
| 20260510055118 | 13 | 302 | 1.6 | 1.6 | 0.00 | 0.00 | 0.00 | 94 | 1003.3 |
| 20260510054538 | 13 | 282 | 0.0 | 1.6 | 0.00 | 0.00 | 0.00 | 93 | 1003.3 |
| 20260510053314 | 13 | 261 | 0.0 | 0.0 | 0.00 | 0.00 | 0.00 | 93 | 1003.3 |
| 20260510052149 | 13 | 252 | 0.0 | 0.0 | 0.00 | 0.00 | 0.00 | 92 | 1003.3 |
| 20260510051548 | 13 | 256 | 0.0 | 0.0 | 0.00 | 0.00 | 0.00 | 92 | 1003.3 |
| 20260510050912 | 13 | 270 | 0.0 | 0.0 | 0.00 | 0.00 | 0.00 | 92 | 1003.3 |
| 20260510050332 | 14 | 269 | 0.0 | 0.0 | 0.00 | 0.00 | 0.00 | 91 | 1003.3 |
| 20260510045721 | 14 | 282 | 0.0 | 0.0 | 0.00 | 0.00 | 0.00 | 91 | 1003.7 |
| 20260510045110 | 14 | 200 | 0.0 | 0.0 | 0.00 | 0.00 | 0.00 | 91 | 1003.3 |
| 20260510043931 | 14 | 258 | 0.0 | 0.0 | 0.00 | 0.00 | 0.00 | 91 | 1003.7 |
| 20260510043338 | 14 | 271 | 0.0 | 0.0 | 0.00 | 0.00 | 0.00 | 91 | 1003.7 |
| 20260510042711 | 14 | 273 | 0.0 | 0.0 | 0.00 | 0.00 | 0.00 | 91 | 1003.7 |
| 20260510042145 | 14 | 241 | 0.0 | 0.0 | 0.00 | 0.00 | 0.00 | 91 | 1003.3 |
| 20260510041533 | 14 | 304 | 0.0 | 0.0 | 0.00 | 0.00 | 0.00 | 91 | 1003.3 |
| 20260510040924 | 14 | 260 | 0.0 | 0.0 | 0.00 | 0.00 | 0.00 | 91 | 1003.3 |
| 20260510040343 | 14 | 274 | 0.0 | 0.0 | 0.00 | 0.00 | 0.00 | 91 | 1003.7 |
| 20260510035747 | 14 | 266 | 0.0 | 0.0 | 0.00 | 0.00 | 0.00 | 91 | 1003.7 |
| 20260510035123 | 14 | 266 | 0.0 | 0.0 | 0.00 | 0.00 | 0.00 | 91 | 1003.7 |
| 20260510034541 | 14 | 220 | 0.0 | 1.6 | 0.00 | 0.00 | 0.00 | 91 | 1003.7 |
| 20260510033909 | 14 | 351 | 1.6 | 1.6 | 0.00 | 0.00 | 0.00 | 91 | 1003.7 |
| 20260510033316 | 14 | 322 | 0.0 | 1.6 | 0.00 | 0.00 | 0.00 | 91 | 1003.7 |
| 20260510032752 | 14 | 282 | 0.0 | 0.0 | 0.00 | 0.00 | 0.00 | 91 | 1003.7 |
| 20260510032147 | 14 | 295 | 0.0 | 0.0 | 0.00 | 0.00 | 0.00 | 91 | 1003.7 |
| 20260510031524 | 14 | 263 | 0.0 | 0.0 | 0.00 | 0.00 | 0.00 | 91 | 1003.3 |
| 20260510030919 | 14 | 278 | 0.0 | 0.0 | 0.00 | 0.00 | 0.00 | 91 | 1003.3 |
| 20260510030328 | 14 | 263 | 0.0 | 0.0 | 0.00 | 0.00 | 0.00 | 90 | 1003.3 |
| 20260510025732 | 14 | 260 | 0.0 | 0.0 | 0.00 | 0.00 | 0.00 | 90 | 1003.3 |
| 20260510025123 | 14 | 262 | 0.0 | 0.0 | 0.00 | 0.00 | 0.00 | 90 | 1003.3 |
| 20260510023940 | 15 | 330 | 0.0 | 0.0 | 0.00 | 0.00 | 0.00 | 90 | 1003.3 |
| 20260510022739 | 15 | 270 | 0.0 | 0.0 | 0.00 | 0.00 | 0.00 | 89 | 1003.0 |
| 20260510021510 | 15 | 271 | 0.0 | 0.0 | 0.00 | 0.00 | 0.00 | 88 | 1002.7 |
| 20260510020952 | 15 | 253 | 0.0 | 0.0 | 0.00 | 0.00 | 0.00 | 88 | 1002.7 |
| 20260510015740 | 15 | 274 | 0.0 | 0.0 | 0.00 | 0.00 | 0.00 | 87 | 1002.7 |
| 20260510015143 | 15 | 280 | 0.0 | 0.0 | 0.00 | 0.00 | 0.00 | 86 | 1002.7 |
| 20260510014511 | 15 | 274 | 0.0 | 0.0 | 0.00 | 0.00 | 0.00 | 86 | 1002.7 |
| 20260510013946 | 15 | 264 | 0.0 | 0.0 | 0.00 | 0.00 | 0.00 | 85 | 1002.3 |
| 20260510012725 | 16 | 293 | 0.0 | 0.0 | 0.00 | 0.00 | 0.00 | 85 | 1002.0 |
| 20260510012131 | 16 | 276 | 0.0 | 0.0 | 0.00 | 0.00 | 0.00 | 84 | 1002.0 |
| 20260510011556 | 16 | 271 | 0.0 | 0.0 | 0.00 | 0.00 | 0.00 | 84 | 1002.0 |
| 20260510010951 | 16 | 269 | 0.0 | 0.0 | 0.00 | 0.00 | 0.00 | 84 | 1001.6 |
| 20260510010348 | 16 | 262 | 0.0 | 0.0 | 0.00 | 0.00 | 0.00 | 83 | 1002.0 |
| 20260510005143 | 16 | 270 | 0.0 | 0.0 | 0.00 | 0.00 | 0.00 | 81 | 1001.6 |
| 20260510004550 | 17 | 275 | 0.0 | 0.0 | 0.00 | 0.00 | 0.00 | 80 | 1001.6 |
| 20260510003308 | 17 | 273 | 0.0 | 0.0 | 0.00 | 0.00 | 0.00 | 79 | 1001.6 |
| 20260510002716 | 18 | 5 | 0.0 | 1.6 | 0.00 | 0.00 | 0.00 | 78 | 1001.6 |
| 20260510001511 | 19 | 276 | 0.0 | 0.0 | 0.00 | 0.00 | 0.00 | 74 | 1001.0 |
| 20260510000943 | 20 | 277 | 0.0 | 0.0 | 0.00 | 0.00 | 0.00 | 71 | 1001.3 |
| 20260510000349 | 20 | 256 | 0.0 | 0.0 | 0.00 | 0.00 | 0.00 | 70 | 1001.0 |
| 20260509235710 | 21 | 286 | 1.6 | 3.2 | 0.00 | 0.00 | 0.00 | 65 | 1001.0 |
| 20260509235126 | 21 | 314 | 3.2 | 3.2 | 0.00 | 0.00 | 0.00 | 64 | 1001.0 |
| 20260509234543 | 21 | 13 | 4.8 | 9.7 | 0.00 | 0.00 | 0.00 | 63 | 1001.0 |
| 20260509233949 | 21 | 340 | 4.8 | 6.4 | 0.00 | 0.00 | 0.00 | 61 | 1001.0 |
| 20260509233339 | 22 | 16 | 1.6 | 1.6 | 0.00 | 0.00 | 0.00 | 61 | 1001.0 |
| 20260509232130 | 22 | 348 | 3.2 | 4.8 | 0.00 | 0.00 | 0.00 | 61 | 1001.0 |
| 20260509231509 | 22 | 297 | 1.6 | 3.2 | 0.00 | 0.00 | 0.00 | 61 | 1001.0 |
| 20260509230951 | 23 | 236 | 1.6 | 3.2 | 0.00 | 0.00 | 0.00 | 58 | 1001.0 |
| 20260509230332 | 23 | 350 | 1.6 | 1.6 | 0.00 | 0.00 | 0.00 | 60 | 1001.0 |
| 20260509225146 | 22 | 329 | 3.2 | 4.8 | 0.00 | 0.00 | 0.00 | 58 | 1001.0 |
| 20260509224535 | 22 | 31 | 8.0 | 9.7 | 0.00 | 0.00 | 0.00 | 57 | 1001.0 |
| 20260509223928 | 22 | 332 | 4.8 | 4.8 | 0.00 | 0.00 | 0.00 | 58 | 1001.0 |
| 20260509223343 | 22 | 305 | 4.8 | 6.4 | 0.00 | 0.00 | 0.00 | 59 | 1001.0 |
| 20260509222130 | 23 | 280 | 4.8 | 6.4 | 0.00 | 0.00 | 0.00 | 58 | 1001.0 |
| 20260509220917 | 23 | 18 | 1.6 | 1.6 | 0.00 | 0.00 | 0.00 | 57 | 1000.6 |
| 20260509220325 | 23 | 335 | 3.2 | 3.2 | 0.00 | 0.00 | 0.00 | 56 | 1001.0 |
| 20260509215723 | 23 | 13 | 4.8 | 4.8 | 0.00 | 0.00 | 0.00 | 55 | 1001.0 |
| 20260509215134 | 23 | 339 | 6.4 | 6.4 | 0.00 | 0.00 | 0.00 | 56 | 1001.0 |
| 20260509214520 | 23 | 286 | 14.5 | 16.1 | 0.00 | 0.00 | 0.00 | 56 | 1001.3 |
| 20260509213334 | 23 | 312 | 4.8 | 6.4 | 0.00 | 0.00 | 0.00 | 56 | 1001.0 |
| 20260509212738 | 23 | 299 | 3.2 | 3.2 | 0.00 | 0.00 | 0.00 | 57 | 1001.0 |
| 20260509212145 | 22 | 26 | 8.0 | 11.3 | 0.00 | 0.00 | 0.00 | 57 | 1001.3 |
| 20260509211542 | 23 | 324 | 6.4 | 6.4 | 0.00 | 0.00 | 0.00 | 57 | 1001.3 |
| 20260509210931 | 21 | 302 | 3.2 | 3.2 | 0.00 | 0.00 | 0.00 | 61 | 1001.0 |
| 20260509210318 | 22 | 9 | 6.4 | 6.4 | 0.00 | 0.00 | 0.00 | 59 | 1001.3 |
| 20260509205747 | 22 | 358 | 4.8 | 6.4 | 0.00 | 0.00 | 0.00 | 58 | 1001.0 |
| 20260509205134 | 22 | 299 | 4.8 | 4.8 | 0.00 | 0.00 | 0.00 | 57 | 1001.0 |
| 20260509204537 | 22 | 296 | 1.6 | 1.6 | 0.00 | 0.00 | 0.00 | 60 | 1001.0 |
| 20260509203950 | 22 | 308 | 6.4 | 9.7 | 0.00 | 0.00 | 0.00 | 59 | 1001.3 |
| 20260509203321 | 21 | 3 | 3.2 | 3.2 | 0.00 | 0.00 | 0.00 | 60 | 1001.3 |
| 20260509202753 | 22 | 320 | 3.2 | 3.2 | 0.00 | 0.00 | 0.00 | 61 | 1001.0 |
| 20260509202126 | 22 | 290 | 9.7 | 12.9 | 0.00 | 0.00 | 0.00 | 57 | 1001.3 |
| 20260509201532 | 22 | 341 | 6.4 | 6.4 | 0.00 | 0.00 | 0.00 | 59 | 1001.3 |
| 20260509200939 | 21 | 302 | 6.4 | 9.7 | 0.00 | 0.00 | 0.00 | 63 | 1001.0 |
| 20260509200309 | 22 | 5 | 6.4 | 6.4 | 0.00 | 0.00 | 0.00 | 60 | 1001.3 |
| 20260509195125 | 22 | 345 | 6.4 | 9.7 | 0.00 | 0.00 | 0.00 | 62 | 1001.3 |
| 20260509193915 | 21 | 301 | 4.8 | 4.8 | 0.00 | 0.00 | 0.00 | 64 | 1001.6 |
| 20260509193337 | 21 | 355 | 3.2 | 3.2 | 0.00 | 0.00 | 0.00 | 66 | 1001.6 |
| 20260509192748 | 21 | 13 | 8.0 | 11.3 | 0.00 | 0.00 | 0.00 | 62 | 1001.6 |
| 20260509191528 | 21 | 351 | 6.4 | 11.3 | 0.00 | 0.00 | 0.00 | 62 | 1001.6 |
| 20260509190313 | 21 | 322 | 6.4 | 6.4 | 0.00 | 0.00 | 0.00 | 64 | 1001.6 |
| 20260509185750 | 21 | 1 | 6.4 | 12.9 | 0.00 | 0.00 | 0.00 | 63 | 1001.6 |
| 20260509185114 | 21 | 348 | 3.2 | 4.8 | 0.00 | 0.00 | 0.00 | 64 | 1001.6 |
| 20260509184531 | 21 | 352 | 1.6 | 3.2 | 0.00 | 0.00 | 0.00 | 66 | 1001.6 |
| 20260509183936 | 21 | 329 | 4.8 | 4.8 | 0.00 | 0.00 | 0.00 | 68 | 1001.6 |
| 20260509183343 | 20 | 19 | 8.0 | 9.7 | 0.00 | 0.00 | 0.00 | 66 | 1001.6 |
| 20260509182727 | 20 | 13 | 6.4 | 9.7 | 0.00 | 0.00 | 0.00 | 68 | 1001.6 |
| 20260509182153 | 20 | 303 | 9.7 | 12.9 | 0.00 | 0.00 | 0.00 | 66 | 1001.6 |
| 20260509181515 | 20 | 26 | 6.4 | 6.4 | 0.00 | 0.00 | 0.00 | 69 | 1001.6 |
| 20260509180942 | 20 | 9 | 6.4 | 6.4 | 0.00 | 0.00 | 0.00 | 67 | 1001.6 |
| 20260509180315 | 20 | 357 | 8.0 | 11.3 | 0.00 | 0.00 | 0.00 | 67 | 1001.6 |
| 20260509175737 | 19 | 319 | 4.8 | 4.8 | 0.00 | 0.00 | 0.00 | 69 | 1001.6 |
| 20260509175152 | 19 | 332 | 6.4 | 9.7 | 0.00 | 0.00 | 0.00 | 68 | 1001.6 |
| 20260509174526 | 19 | 342 | 6.4 | 6.4 | 0.00 | 0.00 | 0.00 | 70 | 1002.0 |
| 20260509173310 | 19 | 352 | 3.2 | 3.2 | 0.00 | 0.00 | 0.00 | 69 | 1002.0 |
| 20260509172726 | 18 | 323 | 4.8 | 4.8 | 0.00 | 0.00 | 0.00 | 71 | 1002.0 |
| 20260509171510 | 17 | 14 | 3.2 | 4.8 | 0.00 | 0.00 | 0.00 | 70 | 1002.0 |
| 20260509170921 | 18 | 325 | 6.4 | 9.7 | 0.00 | 0.00 | 0.00 | 70 | 1002.0 |
| 20260509170323 | 18 | 350 | 6.4 | 11.3 | 0.00 | 0.00 | 0.00 | 69 | 1002.3 |
| 20260509165719 | 17 | 328 | 3.2 | 3.2 | 0.00 | 0.00 | 0.00 | 68 | 1002.3 |
| 20260509165132 | 17 | 321 | 6.4 | 6.4 | 0.00 | 0.00 | 0.00 | 70 | 1002.3 |
| 20260509164539 | 17 | 13 | 3.2 | 4.8 | 0.00 | 0.00 | 0.00 | 71 | 1002.3 |
| 20260509163934 | 17 | 12 | 3.2 | 3.2 | 0.00 | 0.00 | 0.00 | 71 | 1002.7 |
| 20260509162115 | 17 | 344 | 4.8 | 6.4 | 0.00 | 0.00 | 0.00 | 70 | 1002.3 |
| 20260509161540 | 17 | 273 | 3.2 | 3.2 | 0.00 | 0.00 | 0.00 | 72 | 1002.7 |
| 20260509160930 | 17 | 299 | 4.8 | 6.4 | 0.00 | 0.00 | 0.00 | 71 | 1002.7 |
| 20260509160345 | 17 | 330 | 3.2 | 3.2 | 0.00 | 0.00 | 0.00 | 72 | 1002.3 |
| 20260509155716 | 17 | 341 | 1.6 | 3.2 | 0.00 | 0.00 | 0.00 | 71 | 1002.0 |
| 20260509154540 | 17 | 356 | 3.2 | 3.2 | 0.00 | 0.00 | 0.00 | 69 | 1002.0 |
| 20260509153940 | 17 | 307 | 3.2 | 3.2 | 0.00 | 0.00 | 0.00 | 71 | 1002.0 |
| 20260509153324 | 17 | 327 | 3.2 | 4.8 | 0.00 | 0.00 | 0.00 | 72 | 1002.0 |
| 20260509152127 | 16 | 314 | 1.6 | 3.2 | 0.00 | 0.00 | 0.00 | 71 | 1002.0 |
| 20260509150915 | 16 | 318 | 0.0 | 1.6 | 0.00 | 0.00 | 0.00 | 73 | 1002.0 |
| 20260509150315 | 16 | 315 | 1.6 | 1.6 | 0.00 | 0.00 | 0.00 | 74 | 1002.0 |
| 20260509145740 | 16 | 281 | 0.0 | 0.0 | 0.00 | 0.00 | 0.00 | 77 | 1002.0 |
| 20260509145127 | 16 | 264 | 0.0 | 0.0 | 0.00 | 0.00 | 0.00 | 76 | 1002.0 |
| 20260509144508 | 16 | 275 | 0.0 | 0.0 | 0.00 | 0.00 | 0.00 | 79 | 1002.0 |
| 20260509143907 | 15 | 277 | 0.0 | 0.0 | 0.00 | 0.00 | 0.00 | 77 | 1002.0 |
| 20260509142746 | 15 | 270 | 0.0 | 0.0 | 0.00 | 0.00 | 0.00 | 79 | 1002.0 |
| 20260509141517 | 15 | 279 | 0.0 | 0.0 | 0.00 | 0.00 | 0.00 | 82 | 1002.0 |
| 20260509140924 | 15 | 292 | 0.0 | 0.0 | 0.00 | 0.00 | 0.00 | 82 | 1002.3 |
| 20260509140344 | 15 | 280 | 0.0 | 0.0 | 0.00 | 0.00 | 0.00 | 81 | 1002.3 |
| 20260509135710 | 15 | 279 | 0.0 | 0.0 | 0.00 | 0.00 | 0.00 | 81 | 1002.7 |
| 20260509135112 | 15 | 273 | 0.0 | 0.0 | 0.00 | 0.00 | 0.00 | 80 | 1002.7 |
| 20260509134545 | 15 | 287 | 0.0 | 0.0 | 0.00 | 0.00 | 0.00 | 78 | 1002.7 |
| 20260509133914 | 15 | 300 | 1.6 | 1.6 | 0.00 | 0.00 | 0.00 | 79 | 1002.7 |
| 20260509132743 | 15 | 289 | 1.6 | 3.2 | 0.00 | 0.00 | 0.00 | 80 | 1002.0 |
| 20260509132132 | 15 | 273 | 0.0 | 1.6 | 0.00 | 0.00 | 0.00 | 80 | 1001.6 |
| 20260509131511 | 15 | 275 | 0.0 | 1.6 | 0.00 | 0.00 | 0.00 | 81 | 1002.0 |